SL-16 DEB

Satellite information

Favourite Embed

Satellite Type and Status

DEBRISIN ORBIT

Key statistics

Satellite SL-16 DEB at a glance.

Uptime

12042

Days in orbit

Revolutions

≈ 15.0

Per day

Orbit

LEO

Low Earth Orbit

Inclination

71.1

Latest

Satellite identification and parameters

Extended collection of information and parameters for SL-16 DEB.

Object identification

Identified? True

Debris? True

Object name: SL-16 DEB

International designator: 1992-093Q

Object number (NORAD): 22327

Object ID (CCSDS): 22327

Country: COMMONWEALTH OF INDEPENDENT STATES (CIS)

Current information (Y/N): Y

RCS size: MEDIUM

Orbital parameters

Period: 96.116 minutes

Inclination: 71.1144 deg

SMA: 6950.604 km

Apoapsis: 615.465 km

Periapsis: 529.473 km

RAAN: 75.6585 deg

Eccentricy: 0.00618592

Argument of periapsis: 286.4659 deg

Mean anomaly: 130.7276 deg

Mean motion: 14.98197134 rev/day

Mean motion (dot): 0.00014765 rev/day2

B* drag term: 0.0011985061 1/REarth

Two-line elements (TLE)

Creation date: Dec. 12, 2025, 10:14 a.m.

Reference frame: TEME

Reference center: EARTH

Epoch: Dec. 12, 2025, 7:35 a.m. UTC

TLE line 0: 0 SL-16 DEB

TLE line 1: 1 22327U 92093Q 25346.31629248 .00014765 00000-0 11985-2 0 9993

TLE line 2: 2 22327 71.1144 75.6585 0061859 286.4659 130.7276 14.98197134735313

Live tracking on map

Real-time ground track for satellite SL-16 DEB.

In-orbit conjunctions

A list of the most updated potential collisions computed for object SL-16 DEB.

Target Orbit TCA Probability of collision Miss distance Type
CZ-6A DEB LEO 2025-01-13 23:36:14 0.0004786202 284.0 (m) DEBRIS
ORBCOMM FM 29 LEO 2024-07-05 09:04:51 0.0002180661 819.0 (m) PAYLOAD

Associated space launch

Second generation ELING satellite

SL-16 DEB was lifted into orbit during the mission ‘Zenit-2 | Tselina-2 12’, on board a Zenit-2 space rocket.

The launch took place on Dec. 25, 1992, 5:56 a.m. from 45/1.

For more information about the launch, click the button.

Launch to space Zenit-2 | Tselina-2 12
Zenit-2 | Tselina-2 12

Agency: N/A

Status: Launch Successful

Launch date: Dec. 25, 1992, 5:56 a.m. UTC

Rocket: Zenit-2

Launch pad: 45/1

Location: Baikonur Cosmodrome, Republic of Kazakhstan

...

Latest news about this satellite

There are no fresh news available about this satellite. Check back as we update our databases every day.


Newsletter sign-up

Weekly statistics, charts and insights to help you stay on top of the space industry.